Time,TemperatureF,DewpointF,PressureIn,WindDirection,WindDirectionDegrees,WindSpeedMPH,WindSpeedGustMPH,Humidity,HourlyPrecipIn,Conditions,Clouds,dailyrainin,SoftwareType,DateUTC
2013-01-14 00:00:00,54.7,54.1,30.12,SE,135,6.0,8.0,98,-99.99,,,0.62,meteohub,2013-01-14 05:00:00,
2013-01-14 00:02:00,54.7,54.1,30.12,SSE,158,6.0,8.0,98,-99.99,,,0.62,meteohub,2013-01-14 05:02:00,
2013-01-14 00:07:00,54.7,54.1,30.12,SSE,158,5.0,10.0,98,-99.99,,,0.62,meteohub,2013-01-14 05:07:00,
2013-01-14 00:11:00,54.7,54.1,30.12,SSE,158,6.0,10.0,98,-99.99,,,0.62,meteohub,2013-01-14 05:11:00,
2013-01-14 00:16:00,54.7,54.1,30.12,South,180,5.0,10.0,98,-99.99,,,0.62,meteohub,2013-01-14 05:16:00,
2013-01-14 00:21:00,54.9,54.3,30.12,SSE,158,6.0,8.0,98,-99.99,,,0.62,meteohub,2013-01-14 05:21:00,
2013-01-14 00:26:00,54.9,54.3,30.12,South,180,6.0,10.0,98,-99.99,,,0.62,meteohub,2013-01-14 05:26:00,
2013-01-14 00:31:00,54.9,54.3,30.12,SSE,158,9.0,11.0,98,-99.99,,,0.62,meteohub,2013-01-14 05:31:00,
2013-01-14 00:36:00,54.9,54.3,30.12,SSE,158,5.0,11.0,98,-99.99,,,0.62,meteohub,2013-01-14 05:36:00,
2013-01-14 00:41:00,54.9,54.3,30.12,SSE,158,7.0,11.0,98,-99.99,,,0.62,meteohub,2013-01-14 05:41:00,
2013-01-14 00:46:00,55.0,54.5,30.12,SSE,158,5.0,9.0,98,-99.99,,,0.62,meteohub,2013-01-14 05:46:00,
2013-01-14 00:51:00,55.0,54.5,30.12,SSE,158,6.0,9.0,98,-99.99,,,0.62,meteohub,2013-01-14 05:51:00,
2013-01-14 00:56:00,55.0,54.5,30.12,SSW,202,4.0,9.0,98,-99.99,,,0.62,meteohub,2013-01-14 05:56:00,
2013-01-14 01:01:00,55.0,54.5,30.12,SSE,158,6.0,8.0,98,-99.99,,,0.62,meteohub,2013-01-14 06:01:00,
2013-01-14 01:06:00,55.0,54.5,30.12,SSE,158,5.0,9.0,98,-99.99,,,0.62,meteohub,2013-01-14 06:06:00,
2013-01-14 01:11:00,55.2,54.7,30.11,SSE,158,6.0,9.0,98,-99.99,,,0.62,meteohub,2013-01-14 06:11:00,
2013-01-14 01:16:00,55.4,54.9,30.11,SSE,158,3.0,9.0,98,-99.99,,,0.62,meteohub,2013-01-14 06:16:00,
2013-01-14 01:21:00,55.4,54.9,30.11,SSE,158,3.0,8.0,98,-99.99,,,0.62,meteohub,2013-01-14 06:21:00,
2013-01-14 01:26:00,55.4,54.9,30.11,SSE,158,3.0,8.0,98,-99.99,,,0.62,meteohub,2013-01-14 06:26:00,
2013-01-14 01:31:00,55.4,54.9,30.11,WNW,292,0.0,6.0,98,-99.99,,,0.62,meteohub,2013-01-14 06:31:00,
2013-01-14 01:36:00,55.4,54.9,30.11,NW,315,1.0,6.0,98,-99.99,,,0.62,meteohub,2013-01-14 06:36:00,
2013-01-14 01:41:00,55.2,54.7,30.15,West,270,0.0,6.0,98,-99.99,,,0.62,meteohub,2013-01-14 06:41:00,
2013-01-14 01:46:00,55.0,54.5,30.15,WNW,292,3.0,3.0,98,-99.99,,,0.62,meteohub,2013-01-14 06:46:00,
2013-01-14 01:51:00,54.9,54.3,30.15,NNW,338,0.0,4.0,98,-99.99,,,0.62,meteohub,2013-01-14 06:51:00,
2013-01-14 01:56:00,54.7,54.1,30.12,NW,315,3.0,4.0,98,-99.99,,,0.62,meteohub,2013-01-14 06:56:00,
2013-01-14 02:01:00,54.5,54.0,30.12,WNW,292,3.0,4.0,98,-99.99,,,0.62,meteohub,2013-01-14 07:01:00,
2013-01-14 02:06:00,54.5,54.0,30.12,WNW,292,2.0,4.0,98,-99.99,,,0.62,meteohub,2013-01-14 07:06:00,
2013-01-14 02:11:00,54.5,54.0,30.12,WNW,292,0.0,4.0,98,-99.99,,,0.62,meteohub,2013-01-14 07:11:00,
2013-01-14 02:16:00,54.3,53.8,30.12,WNW,292,0.0,3.0,98,-99.99,,,0.62,meteohub,2013-01-14 07:16:00,
2013-01-14 02:21:00,54.3,53.8,30.12,SSW,202,0.0,3.0,98,-99.99,,,0.62,meteohub,2013-01-14 07:21:00,
2013-01-14 02:26:00,54.3,53.8,30.15,SSE,158,1.0,3.0,98,-99.99,,,0.62,meteohub,2013-01-14 07:26:00,
2013-01-14 02:31:00,54.3,53.8,30.15,SSE,158,3.0,4.0,98,-99.99,,,0.62,meteohub,2013-01-14 07:31:00,
2013-01-14 02:36:00,54.1,53.6,30.16,SSE,158,4.0,5.0,98,-99.99,,,0.62,meteohub,2013-01-14 07:36:00,
2013-01-14 02:41:00,54.3,53.8,30.12,SSE,158,6.0,7.0,98,-99.99,,,0.62,meteohub,2013-01-14 07:41:00,
2013-01-14 02:46:00,54.5,54.0,30.12,SSE,158,8.0,10.0,98,-99.99,,,0.62,meteohub,2013-01-14 07:46:00,
2013-01-14 02:51:00,54.7,54.1,30.12,SSW,202,1.0,10.0,98,-99.99,,,0.62,meteohub,2013-01-14 07:51:00,
2013-01-14 02:56:00,54.7,54.1,30.12,South,180,1.0,9.0,98,-99.99,,,0.62,meteohub,2013-01-14 07:56:00,
2013-01-14 03:01:00,54.7,54.1,30.12,SSE,158,4.0,9.0,98,-99.99,,,0.62,meteohub,2013-01-14 08:01:00,
2013-01-14 03:06:00,54.9,54.3,30.12,SSE,158,4.0,6.0,98,-99.99,,,0.62,meteohub,2013-01-14 08:06:00,
2013-01-14 03:11:00,54.9,54.3,30.12,SSE,158,6.0,6.0,98,-99.99,,,0.62,meteohub,2013-01-14 08:11:00,
2013-01-14 03:16:00,54.9,54.3,30.12,SSE,158,8.0,11.0,98,-99.99,,,0.62,meteohub,2013-01-14 08:16:00,
2013-01-14 03:21:00,54.9,54.3,30.12,SSE,158,9.0,11.0,98,-99.99,,,0.62,meteohub,2013-01-14 08:21:00,
2013-01-14 03:26:00,54.9,54.3,30.12,SSE,158,7.0,13.0,98,-99.99,,,0.62,meteohub,2013-01-14 08:26:00,
2013-01-14 03:31:00,54.7,54.1,30.12,SSE,158,5.0,13.0,98,-99.99,,,0.62,meteohub,2013-01-14 08:31:00,
2013-01-14 03:36:00,54.7,54.1,30.12,SSE,158,6.0,13.0,98,-99.99,,,0.62,meteohub,2013-01-14 08:36:00,
2013-01-14 03:41:00,54.7,54.1,30.12,SSE,158,5.0,13.0,98,-99.99,,,0.62,meteohub,2013-01-14 08:41:00,
2013-01-14 03:46:00,54.7,54.1,30.12,South,180,2.0,11.0,98,-99.99,,,0.62,meteohub,2013-01-14 08:46:00,
2013-01-14 03:51:00,54.7,54.1,30.12,SE,135,4.0,11.0,98,-99.99,,,0.62,meteohub,2013-01-14 08:51:00,
2013-01-14 03:56:00,54.7,54.1,30.12,SSE,158,5.0,5.0,98,-99.99,,,0.62,meteohub,2013-01-14 08:56:00,
2013-01-14 04:01:00,54.5,54.0,30.12,SSE,158,6.0,6.0,98,-99.99,,,0.62,meteohub,2013-01-14 09:01:00,
2013-01-14 04:06:00,54.5,54.0,30.12,SSE,158,5.0,8.0,98,-99.99,,,0.62,meteohub,2013-01-14 09:06:00,
2013-01-14 04:11:00,54.5,54.0,30.12,SSE,158,6.0,8.0,98,-99.99,,,0.62,meteohub,2013-01-14 09:11:00,
2013-01-14 04:17:00,54.5,54.0,30.12,SSE,158,7.0,11.0,98,-99.99,,,0.62,meteohub,2013-01-14 09:17:00,
2013-01-14 04:21:00,54.5,54.0,30.12,SSE,158,6.0,11.0,98,-99.99,,,0.62,meteohub,2013-01-14 09:21:00,
2013-01-14 04:27:00,54.5,54.0,30.12,SSE,158,4.0,11.0,98,-99.99,,,0.62,meteohub,2013-01-14 09:27:00,
2013-01-14 04:32:00,54.5,54.0,30.12,SSE,158,5.0,9.0,98,-99.99,,,0.62,meteohub,2013-01-14 09:32:00,
2013-01-14 04:37:00,54.5,54.0,30.12,South,180,4.0,8.0,98,-99.99,,,0.62,meteohub,2013-01-14 09:37:00,
2013-01-14 04:42:00,54.5,54.0,30.12,SSE,158,6.0,8.0,98,-99.99,,,0.62,meteohub,2013-01-14 09:42:00,
2013-01-14 04:47:00,54.5,54.0,30.12,SSE,158,6.0,6.0,98,-99.99,,,0.62,meteohub,2013-01-14 09:47:00,
2013-01-14 04:52:00,54.7,54.1,30.12,South,180,4.0,6.0,98,-99.99,,,0.62,meteohub,2013-01-14 09:52:00,
2013-01-14 04:57:00,54.7,54.1,30.08,SSE,158,6.0,7.0,98,-99.99,,,0.62,meteohub,2013-01-14 09:57:00,
2013-01-14 05:02:00,54.7,54.1,30.08,SSE,158,6.0,7.0,98,-99.99,,,0.62,meteohub,2013-01-14 10:02:00,
2013-01-14 05:07:00,54.7,54.1,30.08,SSE,158,8.0,9.0,98,-99.99,,,0.62,meteohub,2013-01-14 10:07:00,
2013-01-14 05:12:00,54.7,54.1,30.08,SSE,158,10.0,10.0,98,-99.99,,,0.62,meteohub,2013-01-14 10:12:00,
2013-01-14 05:17:00,54.9,54.3,30.08,SSE,158,8.0,10.0,98,-99.99,,,0.62,meteohub,2013-01-14 10:17:00,
2013-01-14 05:22:00,54.9,54.3,30.08,SSE,158,6.0,10.0,98,-99.99,,,0.62,meteohub,2013-01-14 10:22:00,
2013-01-14 05:27:00,54.9,54.3,30.08,SSE,158,6.0,10.0,98,-99.99,,,0.62,meteohub,2013-01-14 10:27:00,
2013-01-14 05:32:00,54.9,54.3,30.08,SSE,158,6.0,10.0,98,-99.99,,,0.62,meteohub,2013-01-14 10:32:00,
2013-01-14 05:37:00,54.9,54.3,30.08,SSE,158,6.0,10.0,98,-99.99,,,0.62,meteohub,2013-01-14 10:37:00,
2013-01-14 05:42:00,54.9,54.3,30.12,SSE,158,6.0,10.0,98,-99.99,,,0.62,meteohub,2013-01-14 10:42:00,
2013-01-14 05:47:00,54.9,54.3,30.12,SSE,158,5.0,8.0,98,-99.99,,,0.62,meteohub,2013-01-14 10:47:00,
2013-01-14 05:52:00,54.9,54.3,30.12,SSE,158,4.0,8.0,98,-99.99,,,0.62,meteohub,2013-01-14 10:52:00,
2013-01-14 05:57:00,54.7,54.1,30.12,South,180,5.0,8.0,98,-99.99,,,0.62,meteohub,2013-01-14 10:57:00,
2013-01-14 06:02:00,54.7,54.1,30.12,SSE,158,6.0,6.0,98,-99.99,,,0.62,meteohub,2013-01-14 11:02:00,
2013-01-14 06:07:00,54.7,54.1,30.12,SSE,158,6.0,8.0,98,-99.99,,,0.62,meteohub,2013-01-14 11:07:00,
2013-01-14 06:12:00,54.7,54.1,30.12,SSE,158,6.0,8.0,98,-99.99,,,0.62,meteohub,2013-01-14 11:12:00,
2013-01-14 06:17:00,54.7,54.1,30.12,SSE,158,11.0,11.0,98,-99.99,,,0.62,meteohub,2013-01-14 11:17:00,
2013-01-14 06:22:00,54.7,54.1,30.12,SSE,158,7.0,11.0,98,-99.99,,,0.62,meteohub,2013-01-14 11:22:00,
2013-01-14 06:27:00,54.7,54.1,30.12,SSE,158,6.0,11.0,98,-99.99,,,0.62,meteohub,2013-01-14 11:27:00,
2013-01-14 06:32:00,54.7,54.1,30.12,SSE,158,6.0,11.0,98,-99.99,,,0.62,meteohub,2013-01-14 11:32:00,
2013-01-14 06:37:00,54.7,54.1,30.12,SSE,158,6.0,10.0,98,-99.99,,,0.62,meteohub,2013-01-14 11:37:00,
2013-01-14 06:42:00,54.7,54.1,30.12,SSE,158,6.0,9.0,98,-99.99,,,0.62,meteohub,2013-01-14 11:42:00,
2013-01-14 06:47:00,54.7,54.1,30.12,SSE,158,4.0,7.0,98,-99.99,,,0.62,meteohub,2013-01-14 11:47:00,
2013-01-14 06:52:00,54.7,54.1,30.12,SSE,158,5.0,7.0,98,-99.99,,,0.62,meteohub,2013-01-14 11:52:00,
2013-01-14 06:57:00,54.7,54.1,30.12,SSE,158,8.0,8.0,98,-99.99,,,0.62,meteohub,2013-01-14 11:57:00,
2013-01-14 07:02:00,54.7,54.1,30.12,SSE,158,4.0,8.0,98,-99.99,,,0.62,meteohub,2013-01-14 12:02:00,
2013-01-14 07:07:00,54.7,54.1,30.12,SSE,158,5.0,8.0,98,-99.99,,,0.62,meteohub,2013-01-14 12:07:00,
2013-01-14 07:12:00,54.7,54.1,30.12,SSE,158,4.0,8.0,98,-99.99,,,0.62,meteohub,2013-01-14 12:12:00,
2013-01-14 07:17:00,54.7,54.1,30.12,SSE,158,6.0,6.0,98,-99.99,,,0.62,meteohub,2013-01-14 12:17:00,
2013-01-14 07:22:00,54.7,54.1,30.12,SSE,158,5.0,9.0,98,-99.99,,,0.62,meteohub,2013-01-14 12:22:00,
2013-01-14 07:27:00,54.7,54.1,30.12,SSE,158,4.0,9.0,98,-99.99,,,0.62,meteohub,2013-01-14 12:27:00,
2013-01-14 07:32:00,54.7,54.1,30.12,SSE,158,6.0,9.0,98,-99.99,,,0.62,meteohub,2013-01-14 12:32:00,
2013-01-14 07:37:00,54.7,54.1,30.12,SSE,158,4.0,8.0,98,-99.99,,,0.62,meteohub,2013-01-14 12:37:00,
2013-01-14 07:42:00,54.7,54.1,30.12,SSE,158,5.0,8.0,98,-99.99,,,0.62,meteohub,2013-01-14 12:42:00,
2013-01-14 07:47:00,54.7,54.1,30.12,SSE,158,5.0,7.0,98,-99.99,,,0.62,meteohub,2013-01-14 12:47:00,
2013-01-14 07:52:00,54.7,54.1,30.12,SSE,158,6.0,8.0,98,-99.99,,,0.62,meteohub,2013-01-14 12:52:00,
2013-01-14 07:57:00,54.7,54.1,30.12,SSE,158,7.0,8.0,98,-99.99,,,0.62,meteohub,2013-01-14 12:57:00,
2013-01-14 08:02:00,54.7,54.1,30.12,South,180,6.0,8.0,98,-99.99,,,0.62,meteohub,2013-01-14 13:02:00,
2013-01-14 08:07:00,54.9,54.3,30.12,SSE,158,6.0,9.0,98,-99.99,,,0.62,meteohub,2013-01-14 13:07:00,
2013-01-14 08:12:00,54.9,54.3,30.12,SSE,158,5.0,9.0,98,-99.99,,,0.62,meteohub,2013-01-14 13:12:00,
2013-01-14 08:17:00,54.9,54.3,30.12,SSE,158,6.0,8.0,98,-99.99,,,0.62,meteohub,2013-01-14 13:17:00,
2013-01-14 08:22:00,54.9,54.3,30.12,ESE,112,6.0,7.0,98,-99.99,,,0.62,meteohub,2013-01-14 13:22:00,
2013-01-14 08:27:00,54.9,54.3,30.15,SSE,158,4.0,7.0,98,-99.99,,,0.62,meteohub,2013-01-14 13:27:00,
2013-01-14 08:33:00,54.9,54.3,30.15,SSE,158,4.0,7.0,98,-99.99,,,0.62,meteohub,2013-01-14 13:33:00,
2013-01-14 08:38:00,54.9,54.3,30.15,SSE,158,4.0,6.0,98,-99.99,,,0.62,meteohub,2013-01-14 13:38:00,
2013-01-14 08:43:00,54.9,54.3,30.15,SSE,158,4.0,6.0,98,-99.99,,,0.62,meteohub,2013-01-14 13:43:00,
2013-01-14 08:48:00,54.9,54.3,30.15,SE,135,4.0,6.0,98,-99.99,,,0.62,meteohub,2013-01-14 13:48:00,
2013-01-14 08:53:00,54.9,54.3,30.15,SSE,158,4.0,6.0,98,-99.99,,,0.62,meteohub,2013-01-14 13:53:00,
2013-01-14 08:58:00,54.9,54.3,30.15,SSE,158,5.0,6.0,98,-99.99,,,0.62,meteohub,2013-01-14 13:58:00,
2013-01-14 09:03:00,54.9,54.3,30.15,SSE,158,4.0,6.0,98,-99.99,,,0.62,meteohub,2013-01-14 14:03:00,
2013-01-14 09:08:00,54.9,54.3,30.15,SSE,158,3.0,7.0,98,-99.99,,,0.62,meteohub,2013-01-14 14:08:00,
2013-01-14 09:13:00,54.9,54.3,30.15,SSE,158,6.0,7.0,98,-99.99,,,0.62,meteohub,2013-01-14 14:13:00,
2013-01-14 09:18:00,54.9,54.3,30.15,South,180,4.0,6.0,98,-99.99,,,0.62,meteohub,2013-01-14 14:18:00,
2013-01-14 09:23:00,54.9,54.3,30.15,SSE,158,5.0,6.0,98,-99.99,,,0.62,meteohub,2013-01-14 14:23:00,
2013-01-14 09:28:00,54.9,54.3,30.15,SSE,158,4.0,6.0,98,-99.99,,,0.62,meteohub,2013-01-14 14:28:00,
2013-01-14 09:33:00,55.0,54.5,30.15,SSE,158,4.0,6.0,98,-99.99,,,0.62,meteohub,2013-01-14 14:33:00,
2013-01-14 09:38:00,55.0,54.5,30.15,SSE,158,3.0,6.0,98,-99.99,,,0.62,meteohub,2013-01-14 14:38:00,
2013-01-14 09:43:00,55.2,54.7,30.15,SSE,158,3.0,6.0,98,-99.99,,,0.62,meteohub,2013-01-14 14:43:00,
2013-01-14 09:48:00,55.2,54.7,30.15,SSE,158,4.0,6.0,98,-99.99,,,0.62,meteohub,2013-01-14 14:48:00,
2013-01-14 09:53:00,55.4,54.9,30.14,SSE,158,4.0,6.0,98,-99.99,,,0.62,meteohub,2013-01-14 14:53:00,
2013-01-14 09:58:00,55.2,54.7,30.15,SSE,158,5.0,6.0,98,-99.99,,,0.62,meteohub,2013-01-14 14:58:00,
2013-01-14 10:03:00,55.2,54.7,30.15,SSE,158,4.0,6.0,98,-99.99,,,0.62,meteohub,2013-01-14 15:03:00,
2013-01-14 10:08:00,55.2,54.7,30.15,SSE,158,3.0,6.0,98,-99.99,,,0.62,meteohub,2013-01-14 15:08:00,
2013-01-14 10:13:00,55.2,54.7,30.18,SSE,158,4.0,6.0,98,-99.99,,,0.62,meteohub,2013-01-14 15:13:00,
2013-01-14 10:18:00,55.2,54.7,30.18,SSE,158,3.0,6.0,98,-99.99,,,0.62,meteohub,2013-01-14 15:18:00,
2013-01-14 10:23:00,55.4,54.9,30.18,SSE,158,6.0,6.0,98,-99.99,,,0.62,meteohub,2013-01-14 15:23:00,
2013-01-14 10:28:00,55.4,54.9,30.14,SE,135,0.0,7.0,98,-99.99,,,0.62,meteohub,2013-01-14 15:28:00,
2013-01-14 10:33:00,55.4,54.9,30.14,SSE,158,0.0,7.0,98,-99.99,,,0.62,meteohub,2013-01-14 15:33:00,
2013-01-14 10:38:00,55.4,54.9,30.14,SSE,158,4.0,7.0,98,-99.99,,,0.62,meteohub,2013-01-14 15:38:00,
2013-01-14 10:43:00,55.2,54.7,30.15,SSE,158,5.0,6.0,98,-99.99,,,0.62,meteohub,2013-01-14 15:43:00,
2013-01-14 10:48:00,55.2,54.7,30.15,SSE,158,6.0,6.0,98,-99.99,,,0.62,meteohub,2013-01-14 15:48:00,
2013-01-14 10:53:00,55.2,54.7,30.15,SSE,158,4.0,6.0,98,-99.99,,,0.62,meteohub,2013-01-14 15:53:00,
2013-01-14 10:58:00,55.4,54.9,30.14,SSE,158,6.0,6.0,98,-99.99,,,0.62,meteohub,2013-01-14 15:58:00,
2013-01-14 11:03:00,55.4,54.9,30.14,SSE,158,3.0,6.0,98,-99.99,,,0.62,meteohub,2013-01-14 16:03:00,
2013-01-14 11:08:00,55.4,54.9,30.14,SSE,158,3.0,6.0,98,-99.99,,,0.62,meteohub,2013-01-14 16:08:00,
2013-01-14 11:13:00,55.6,55.0,30.14,SSE,158,3.0,6.0,98,-99.99,,,0.62,meteohub,2013-01-14 16:13:00,
2013-01-14 11:18:00,55.6,55.0,30.14,SSW,202,2.0,4.0,98,-99.99,,,0.62,meteohub,2013-01-14 16:18:00,
2013-01-14 11:23:00,55.6,55.0,30.14,SSE,158,2.0,4.0,98,-99.99,,,0.62,meteohub,2013-01-14 16:23:00,
2013-01-14 11:28:00,55.8,55.2,30.18,South,180,0.0,4.0,98,-99.99,,,0.62,meteohub,2013-01-14 16:28:00,
2013-01-14 11:34:00,55.8,55.2,30.18,South,180,0.0,3.0,98,-99.99,,,0.62,meteohub,2013-01-14 16:34:00,
2013-01-14 11:39:00,55.8,55.2,30.18,NNW,338,3.0,3.0,98,-99.99,,,0.62,meteohub,2013-01-14 16:39:00,
2013-01-14 11:44:00,55.6,55.0,30.14,WNW,292,0.0,2.0,98,-99.99,,,0.62,meteohub,2013-01-14 16:44:00,
2013-01-14 11:49:00,55.4,54.9,30.14,NW,315,0.0,3.0,98,-99.99,,,0.62,meteohub,2013-01-14 16:49:00,
2013-01-14 11:54:00,55.2,54.7,30.15,NW,315,2.0,3.0,98,-99.99,,,0.62,meteohub,2013-01-14 16:54:00,
2013-01-14 11:59:00,55.2,54.7,30.15,NW,315,3.0,3.0,98,-99.99,,,0.62,meteohub,2013-01-14 16:59:00,
2013-01-14 12:04:00,55.0,54.5,30.15,WNW,292,4.0,4.0,98,-99.99,,,0.62,meteohub,2013-01-14 17:04:00,
2013-01-14 12:09:00,55.0,54.5,30.15,West,270,3.0,4.0,98,-99.99,,,0.62,meteohub,2013-01-14 17:09:00,
2013-01-14 12:14:00,54.9,54.3,30.15,NNW,338,4.0,4.0,98,-99.99,,,0.62,meteohub,2013-01-14 17:14:00,
2013-01-14 12:19:00,54.7,54.1,30.15,WNW,292,3.0,5.0,98,-99.99,,,0.62,meteohub,2013-01-14 17:19:00,
2013-01-14 12:24:00,54.3,53.8,30.15,NW,315,3.0,5.0,98,-99.99,,,0.62,meteohub,2013-01-14 17:24:00,
2013-01-14 12:29:00,54.3,53.8,30.12,WNW,292,3.0,5.0,98,-99.99,,,0.62,meteohub,2013-01-14 17:29:00,
2013-01-14 12:34:00,54.1,53.6,30.12,NW,315,1.0,4.0,98,-99.99,,,0.62,meteohub,2013-01-14 17:34:00,
2013-01-14 12:39:00,54.3,53.8,30.12,NNE,22,0.0,4.0,98,-99.99,,,0.62,meteohub,2013-01-14 17:39:00,
2013-01-14 12:44:00,54.1,53.6,30.12,NNW,338,4.0,4.0,98,-99.99,,,0.62,meteohub,2013-01-14 17:44:00,
2013-01-14 12:49:00,54.1,53.6,30.12,NE,45,3.0,3.0,98,-99.99,,,0.62,meteohub,2013-01-14 17:49:00,
2013-01-14 12:54:00,54.1,53.6,30.12,WNW,292,2.0,4.0,98,-99.99,,,0.62,meteohub,2013-01-14 17:54:00,
2013-01-14 12:59:00,53.8,53.2,30.12,NNW,338,2.0,5.0,98,-99.99,,,0.62,meteohub,2013-01-14 17:59:00,
2013-01-14 13:04:00,53.6,53.1,30.13,WNW,292,3.0,5.0,98,-99.99,,,0.62,meteohub,2013-01-14 18:04:00,
2013-01-14 13:09:00,53.4,52.9,30.13,WNW,292,2.0,5.0,98,-99.99,,,0.62,meteohub,2013-01-14 18:09:00,
2013-01-14 13:14:00,53.6,53.1,30.13,NNW,338,3.0,4.0,98,-99.99,,,0.62,meteohub,2013-01-14 18:14:00,
2013-01-14 13:19:00,53.6,53.1,30.13,NW,315,4.0,4.0,98,-99.99,,,0.62,meteohub,2013-01-14 18:19:00,
2013-01-14 13:24:00,53.6,53.1,30.13,NW,315,2.0,4.0,98,-99.99,,,0.62,meteohub,2013-01-14 18:24:00,
2013-01-14 13:29:00,53.8,53.2,30.12,NW,315,1.0,4.0,98,-99.99,,,0.62,meteohub,2013-01-14 18:29:00,
2013-01-14 13:34:00,53.6,53.1,30.13,NW,315,0.0,4.0,98,-99.99,,,0.62,meteohub,2013-01-14 18:34:00,
2013-01-14 13:39:00,53.6,53.1,30.13,WNW,292,1.0,4.0,98,-99.99,,,0.62,meteohub,2013-01-14 18:39:00,
2013-01-14 13:44:00,53.6,53.1,30.13,NW,315,0.0,3.0,98,-99.99,,,0.62,meteohub,2013-01-14 18:44:00,
2013-01-14 13:49:00,53.4,52.9,30.13,SE,135,0.0,3.0,98,-99.99,,,0.62,meteohub,2013-01-14 18:49:00,
2013-01-14 13:54:00,53.6,53.1,30.13,SE,135,0.0,2.0,98,-99.99,,,0.62,meteohub,2013-01-14 18:54:00,
2013-01-14 13:59:00,53.8,53.2,30.12,SSE,158,3.0,3.0,98,-99.99,,,0.62,meteohub,2013-01-14 18:59:00,
2013-01-14 14:04:00,53.8,53.2,30.12,South,180,3.0,3.0,98,-99.99,,,0.62,meteohub,2013-01-14 19:04:00,
2013-01-14 14:09:00,54.0,53.4,30.12,SSE,158,3.0,4.0,98,-99.99,,,0.62,meteohub,2013-01-14 19:09:00,
2013-01-14 14:14:00,54.1,53.6,30.12,SSE,158,3.0,4.0,98,-99.99,,,0.62,meteohub,2013-01-14 19:14:00,
2013-01-14 14:20:00,54.1,53.6,30.12,SSE,158,3.0,4.0,98,-99.99,,,0.62,meteohub,2013-01-14 19:20:00,
2013-01-14 14:25:00,54.3,53.8,30.12,SSE,158,4.0,4.0,98,-99.99,,,0.62,meteohub,2013-01-14 19:25:00,
2013-01-14 14:30:00,54.5,54.0,30.12,SSE,158,4.0,4.0,98,-99.99,,,0.62,meteohub,2013-01-14 19:30:00,
2013-01-14 14:35:00,54.5,54.0,30.12,SSE,158,3.0,4.0,98,-99.99,,,0.62,meteohub,2013-01-14 19:35:00,
2013-01-14 14:40:00,54.7,54.1,30.12,SSE,158,3.0,4.0,98,-99.99,,,0.62,meteohub,2013-01-14 19:40:00,
2013-01-14 14:45:00,54.7,54.1,30.12,SSE,158,4.0,4.0,98,-99.99,,,0.62,meteohub,2013-01-14 19:45:00,
2013-01-14 14:50:00,54.9,54.3,30.12,ENE,68,1.0,6.0,98,-99.99,,,0.62,meteohub,2013-01-14 19:50:00,
2013-01-14 14:55:00,54.9,54.3,30.12,SSE,158,4.0,6.0,98,-99.99,,,0.62,meteohub,2013-01-14 19:55:00,
2013-01-14 15:00:00,54.9,54.3,30.12,South,180,3.0,6.0,98,-99.99,,,0.62,meteohub,2013-01-14 20:00:00,
2013-01-14 15:05:00,55.0,54.5,30.12,SSE,158,1.0,4.0,98,-99.99,,,0.62,meteohub,2013-01-14 20:05:00,
2013-01-14 15:10:00,55.0,54.5,30.12,SSE,158,4.0,4.0,98,-99.99,,,0.62,meteohub,2013-01-14 20:10:00,
2013-01-14 15:15:00,55.2,54.7,30.11,SSE,158,1.0,4.0,98,-99.99,,,0.62,meteohub,2013-01-14 20:15:00,
2013-01-14 15:20:00,55.2,54.7,30.11,East,90,2.0,5.0,98,-99.99,,,0.62,meteohub,2013-01-14 20:20:00,
2013-01-14 15:25:00,55.4,54.9,30.11,South,180,0.0,5.0,98,-99.99,,,0.62,meteohub,2013-01-14 20:25:00,
2013-01-14 15:30:00,55.4,54.9,30.11,WSW,248,0.0,5.0,98,-99.99,,,0.62,meteohub,2013-01-14 20:30:00,
2013-01-14 15:35:00,55.4,54.9,30.11,West,270,0.0,2.0,98,-99.99,,,0.62,meteohub,2013-01-14 20:35:00,
2013-01-14 15:40:00,55.4,54.9,30.11,WNW,292,0.0,2.0,98,-99.99,,,0.62,meteohub,2013-01-14 20:40:00,
2013-01-14 15:45:00,55.4,54.9,30.11,SSE,158,2.0,3.0,98,-99.99,,,0.62,meteohub,2013-01-14 20:45:00,
2013-01-14 15:50:00,55.6,55.0,30.11,SW,225,0.0,3.0,98,-99.99,,,0.62,meteohub,2013-01-14 20:50:00,
2013-01-14 15:55:00,55.4,54.9,30.11,SSE,158,2.0,3.0,98,-99.99,,,0.62,meteohub,2013-01-14 20:55:00,
2013-01-14 16:00:00,55.4,54.9,30.11,South,180,2.0,3.0,98,-99.99,,,0.62,meteohub,2013-01-14 21:00:00,
2013-01-14 16:05:00,55.4,54.9,30.11,SSE,158,4.0,4.0,98,-99.99,,,0.62,meteohub,2013-01-14 21:05:00,
2013-01-14 16:10:00,55.4,54.9,30.11,SSE,158,3.0,4.0,98,-99.99,,,0.62,meteohub,2013-01-14 21:10:00,
2013-01-14 16:15:00,55.2,54.7,30.15,SSE,158,3.0,4.0,98,-99.99,,,0.62,meteohub,2013-01-14 21:15:00,
2013-01-14 16:20:00,55.2,54.7,30.15,SSE,158,0.0,4.0,98,-99.99,,,0.62,meteohub,2013-01-14 21:20:00,
2013-01-14 16:25:00,55.2,54.7,30.15,SSE,158,3.0,4.0,98,-99.99,,,0.62,meteohub,2013-01-14 21:25:00,
2013-01-14 16:30:00,55.2,54.7,30.15,ESE,112,2.0,5.0,98,-99.99,,,0.62,meteohub,2013-01-14 21:30:00,
2013-01-14 16:35:00,55.2,54.7,30.15,SSE,158,3.0,5.0,98,-99.99,,,0.62,meteohub,2013-01-14 21:35:00,
2013-01-14 16:40:00,55.2,54.7,30.15,SSE,158,3.0,5.0,98,-99.99,,,0.62,meteohub,2013-01-14 21:40:00,
2013-01-14 16:45:00,55.2,54.7,30.15,WSW,248,0.0,3.0,98,-99.99,,,0.62,meteohub,2013-01-14 21:45:00,
2013-01-14 16:50:00,55.2,54.7,30.15,ENE,68,1.0,3.0,98,-99.99,,,0.62,meteohub,2013-01-14 21:50:00,
2013-01-14 16:55:00,55.0,54.5,30.15,NW,315,3.0,3.0,98,-99.99,,,0.62,meteohub,2013-01-14 21:55:00,
2013-01-14 17:00:00,55.0,54.5,30.15,North,0,1.0,3.0,98,-99.99,,,0.62,meteohub,2013-01-14 22:00:00,
2013-01-14 17:05:00,55.0,54.5,30.15,NW,315,1.0,3.0,98,-99.99,,,0.62,meteohub,2013-01-14 22:05:00,
2013-01-14 17:10:00,54.9,54.3,30.15,NW,315,3.0,3.0,98,-99.99,,,0.62,meteohub,2013-01-14 22:10:00,
2013-01-14 17:15:00,54.5,54.0,30.15,NW,315,2.0,3.0,98,-99.99,,,0.62,meteohub,2013-01-14 22:15:00,
2013-01-14 17:20:00,54.3,53.8,30.15,North,0,0.0,3.0,98,-99.99,,,0.62,meteohub,2013-01-14 22:20:00,
2013-01-14 17:25:00,54.3,53.8,30.15,WNW,292,3.0,3.0,98,-99.99,,,0.62,meteohub,2013-01-14 22:25:00,
2013-01-14 17:30:00,54.1,53.6,30.16,ENE,68,0.0,4.0,98,-99.99,,,0.62,meteohub,2013-01-14 22:30:00,
2013-01-14 17:35:00,54.1,53.6,30.16,WSW,248,0.0,4.0,98,-99.99,,,0.62,meteohub,2013-01-14 22:35:00,
2013-01-14 17:40:00,54.0,53.4,30.16,ESE,112,2.0,4.0,98,-99.99,,,0.62,meteohub,2013-01-14 22:40:00,
2013-01-14 17:46:00,54.3,53.8,30.15,ENE,68,0.0,6.0,98,-99.99,,,0.62,meteohub,2013-01-14 22:46:00,
2013-01-14 17:51:00,54.3,53.8,30.15,SSE,158,0.0,6.0,98,-99.99,,,0.62,meteohub,2013-01-14 22:51:00,
2013-01-14 17:56:00,54.5,54.0,30.15,SSE,158,5.0,6.0,98,-99.99,,,0.62,meteohub,2013-01-14 22:56:00,
2013-01-14 18:01:00,54.9,54.3,30.15,SSE,158,9.0,9.0,98,-99.99,,,0.62,meteohub,2013-01-14 23:01:00,
2013-01-14 18:06:00,55.2,54.7,30.15,SSE,158,6.0,9.0,98,-99.99,,,0.62,meteohub,2013-01-14 23:06:00,
2013-01-14 18:11:00,55.2,54.7,30.15,SE,135,6.0,12.0,98,-99.99,,,0.62,meteohub,2013-01-14 23:11:00,
2013-01-14 18:16:00,55.2,54.7,30.15,SSE,158,2.0,12.0,98,-99.99,,,0.62,meteohub,2013-01-14 23:16:00,
2013-01-14 18:21:00,55.4,54.9,30.14,SSE,158,4.0,11.0,98,-99.99,,,0.62,meteohub,2013-01-14 23:21:00,
2013-01-14 18:26:00,55.4,54.9,30.14,SSE,158,5.0,9.0,98,-99.99,,,0.62,meteohub,2013-01-14 23:26:00,
2013-01-14 18:31:00,55.4,54.9,30.14,SE,135,5.0,9.0,98,-99.99,,,0.62,meteohub,2013-01-14 23:31:00,
2013-01-14 18:36:00,55.4,54.9,30.14,SSE,158,5.0,11.0,98,-99.99,,,0.62,meteohub,2013-01-14 23:36:00,
2013-01-14 18:41:00,55.4,54.9,30.14,SSE,158,8.0,11.0,98,-99.99,,,0.62,meteohub,2013-01-14 23:41:00,
2013-01-14 18:46:00,55.4,54.9,30.14,SSE,158,6.0,11.0,98,-99.99,,,0.62,meteohub,2013-01-14 23:46:00,
2013-01-14 18:51:00,55.4,54.9,30.14,SSE,158,6.0,9.0,98,-99.99,,,0.62,meteohub,2013-01-14 23:51:00,
2013-01-14 18:56:00,55.4,54.9,30.14,SSE,158,4.0,10.0,98,-99.99,,,0.62,meteohub,2013-01-14 23:56:00,
2013-01-14 19:01:00,55.4,54.9,30.14,SSE,158,9.0,10.0,98,-99.99,,,0.62,meteohub,2013-01-15 00:01:00,
2013-01-14 19:06:00,55.4,54.9,30.14,SSE,158,7.0,11.0,98,-99.99,,,0.62,meteohub,2013-01-15 00:06:00,
2013-01-14 19:11:00,55.6,55.0,30.14,SSE,158,6.0,11.0,98,-99.99,,,0.62,meteohub,2013-01-15 00:11:00,
2013-01-14 19:16:00,55.6,55.0,30.14,SSE,158,6.0,11.0,98,-99.99,,,0.62,meteohub,2013-01-15 00:16:00,
2013-01-14 19:21:00,55.6,55.0,30.14,SSE,158,5.0,10.0,98,-99.99,,,0.62,meteohub,2013-01-15 00:21:00,
2013-01-14 19:26:00,55.6,55.0,30.14,South,180,4.0,9.0,98,-99.99,,,0.62,meteohub,2013-01-15 00:26:00,
2013-01-14 19:31:00,55.6,55.0,30.14,SSE,158,6.0,8.0,98,-99.99,,,0.62,meteohub,2013-01-15 00:31:00,
2013-01-14 19:36:00,55.8,55.2,30.14,SSE,158,6.0,7.0,98,-99.99,,,0.62,meteohub,2013-01-15 00:36:00,
2013-01-14 19:41:00,55.8,55.2,30.14,SSE,158,9.0,9.0,98,-99.99,,,0.62,meteohub,2013-01-15 00:41:00,
2013-01-14 19:46:00,55.8,55.2,30.14,SSE,158,4.0,10.0,98,-99.99,,,0.62,meteohub,2013-01-15 00:46:00,
2013-01-14 19:51:00,55.8,55.2,30.14,NNW,338,2.0,10.0,98,-99.99,,,0.62,meteohub,2013-01-15 00:51:00,
2013-01-14 19:57:00,54.0,53.4,30.16,NW,315,4.0,10.0,98,-99.99,,,0.62,meteohub,2013-01-15 00:57:00,
2013-01-14 20:02:00,52.9,52.3,30.17,NW,315,4.0,6.0,98,-99.99,,,0.62,meteohub,2013-01-15 01:02:00,
2013-01-14 20:07:00,51.6,51.1,30.17,NW,315,5.0,6.0,98,-99.99,,,0.62,meteohub,2013-01-15 01:07:00,
2013-01-14 20:12:00,50.9,50.4,30.22,NNW,338,5.0,6.0,98,-99.99,,,0.62,meteohub,2013-01-15 01:12:00,
2013-01-14 20:17:00,50.4,49.8,30.22,NNE,22,5.0,6.0,98,-99.99,,,0.62,meteohub,2013-01-15 01:17:00,
2013-01-14 20:22:00,50.2,49.6,30.22,WNW,292,4.0,8.0,98,-99.99,,,0.62,meteohub,2013-01-15 01:22:00,
2013-01-14 20:27:00,49.3,48.7,30.19,NW,315,6.0,8.0,98,-99.99,,,0.62,meteohub,2013-01-15 01:27:00,
2013-01-14 20:32:00,48.9,48.4,30.20,WNW,292,4.0,8.0,98,-99.99,,,0.62,meteohub,2013-01-15 01:32:00,
2013-01-14 20:37:00,48.6,48.0,30.20,West,270,6.0,9.0,98,-99.99,,,0.62,meteohub,2013-01-15 01:37:00,
2013-01-14 20:42:00,48.0,47.5,30.20,NW,315,6.0,9.0,98,-99.99,,,0.62,meteohub,2013-01-15 01:42:00,
2013-01-14 20:47:00,47.7,47.1,30.21,WNW,292,8.0,9.0,98,-99.99,,,0.62,meteohub,2013-01-15 01:47:00,
2013-01-14 20:52:00,47.5,46.9,30.21,NW,315,6.0,10.0,98,-99.99,,,0.62,meteohub,2013-01-15 01:52:00,
2013-01-14 20:57:00,47.5,46.9,30.21,NW,315,4.0,10.0,98,-99.99,,,0.62,meteohub,2013-01-15 01:57:00,
2013-01-14 21:02:00,47.3,46.8,30.21,NW,315,4.0,9.0,98,-99.99,,,0.62,meteohub,2013-01-15 02:02:00,
2013-01-14 21:07:00,47.1,46.6,30.21,NW,315,9.0,9.0,98,-99.99,,,0.62,meteohub,2013-01-15 02:07:00,
2013-01-14 21:12:00,46.9,46.4,30.21,NNW,338,8.0,9.0,98,-99.99,,,0.62,meteohub,2013-01-15 02:12:00,
2013-01-14 21:17:00,46.8,46.2,30.22,WNW,292,6.0,9.0,98,-99.99,,,0.62,meteohub,2013-01-15 02:17:00,
2013-01-14 21:22:00,46.6,46.0,30.22,NW,315,4.0,10.0,98,-99.99,,,0.62,meteohub,2013-01-15 02:22:00,
2013-01-14 21:27:00,46.6,46.0,30.25,NW,315,7.0,11.0,98,-99.99,,,0.62,meteohub,2013-01-15 02:27:00,
2013-01-14 21:32:00,46.4,45.9,30.25,NW,315,6.0,12.0,98,-99.99,,,0.62,meteohub,2013-01-15 02:32:00,
2013-01-14 21:37:00,46.2,45.7,30.25,NNW,338,9.0,12.0,98,-99.99,,,0.62,meteohub,2013-01-15 02:37:00,
2013-01-14 21:42:00,46.0,45.5,30.22,NW,315,6.0,12.0,98,-99.99,,,0.62,meteohub,2013-01-15 02:42:00,
2013-01-14 21:47:00,45.9,45.3,30.22,NW,315,9.0,11.0,98,-99.99,,,0.62,meteohub,2013-01-15 02:47:00,
2013-01-14 21:52:00,45.9,45.3,30.22,NNW,338,11.0,11.0,98,-99.99,,,0.62,meteohub,2013-01-15 02:52:00,
2013-01-14 21:57:00,45.7,45.1,30.26,NNW,338,7.0,15.0,98,-99.99,,,0.62,meteohub,2013-01-15 02:57:00,
2013-01-14 22:02:00,45.5,45.0,30.26,NW,315,9.0,15.0,98,-99.99,,,0.62,meteohub,2013-01-15 03:02:00,
2013-01-14 22:07:00,45.3,44.8,30.26,NW,315,5.0,12.0,98,-99.99,,,0.62,meteohub,2013-01-15 03:07:00,
2013-01-14 22:12:00,45.3,44.8,30.26,NW,315,8.0,12.0,98,-99.99,,,0.62,meteohub,2013-01-15 03:12:00,
2013-01-14 22:17:00,45.1,44.6,30.26,WNW,292,6.0,11.0,98,-99.99,,,0.62,meteohub,2013-01-15 03:17:00,
2013-01-14 22:22:00,45.1,44.6,30.26,NW,315,6.0,11.0,98,-99.99,,,0.62,meteohub,2013-01-15 03:22:00,
2013-01-14 22:27:00,45.1,44.6,30.26,NW,315,8.0,11.0,98,-99.99,,,0.62,meteohub,2013-01-15 03:27:00,
2013-01-14 22:32:00,45.1,44.6,30.26,NNW,338,7.0,11.0,98,-99.99,,,0.62,meteohub,2013-01-15 03:32:00,
2013-01-14 22:37:00,45.1,44.6,30.26,NW,315,6.0,11.0,98,-99.99,,,0.62,meteohub,2013-01-15 03:37:00,
2013-01-14 22:42:00,44.8,44.2,30.27,WNW,292,8.0,11.0,98,-99.99,,,0.62,meteohub,2013-01-15 03:42:00,
2013-01-14 22:47:00,44.6,44.1,30.27,WNW,292,10.0,11.0,98,-99.99,,,0.62,meteohub,2013-01-15 03:47:00,
2013-01-14 22:52:00,44.4,43.9,30.27,NW,315,8.0,11.0,98,-99.99,,,0.62,meteohub,2013-01-15 03:52:00,
2013-01-14 22:57:00,44.4,43.9,30.27,NW,315,6.0,11.0,98,-99.99,,,0.62,meteohub,2013-01-15 03:57:00,
2013-01-14 23:02:00,44.8,44.2,30.27,NNW,338,9.0,11.0,98,-99.99,,,0.62,meteohub,2013-01-15 04:02:00,
2013-01-14 23:07:00,45.1,44.6,30.26,NW,315,5.0,11.0,98,-99.99,,,0.62,meteohub,2013-01-15 04:07:00,
2013-01-14 23:12:00,45.0,44.4,30.26,WNW,292,4.0,11.0,98,-99.99,,,0.62,meteohub,2013-01-15 04:12:00,
2013-01-14 23:17:00,44.8,44.2,30.27,NW,315,6.0,10.0,98,-99.99,,,0.62,meteohub,2013-01-15 04:17:00,
2013-01-14 23:22:00,44.6,44.1,30.27,WNW,292,5.0,9.0,98,-99.99,,,0.62,meteohub,2013-01-15 04:22:00,
2013-01-14 23:27:00,44.6,44.1,30.23,WNW,292,6.0,9.0,98,-99.99,,,0.62,meteohub,2013-01-15 04:27:00,
2013-01-14 23:32:00,44.6,44.1,30.23,NNW,338,5.0,9.0,98,-99.99,,,0.62,meteohub,2013-01-15 04:32:00,
2013-01-14 23:37:00,44.8,44.2,30.23,WNW,292,6.0,8.0,98,-99.99,,,0.62,meteohub,2013-01-15 04:37:00,
2013-01-14 23:42:00,44.6,44.1,30.23,East,90,4.0,6.0,98,-99.99,,,0.62,meteohub,2013-01-15 04:42:00,
2013-01-14 23:47:00,44.6,44.1,30.23,NW,315,4.0,6.0,98,-99.99,,,0.62,meteohub,2013-01-15 04:47:00,
2013-01-14 23:52:00,45.3,44.8,30.23,West,270,2.0,9.0,98,-99.99,,,0.62,meteohub,2013-01-15 04:52:00,
2013-01-14 23:57:00,47.3,46.8,30.21,SE,135,1.0,10.0,98,-99.99,,,0.62,meteohub,2013-01-15 04:57:00,